This is the latest recevied weather packets stored in our database for station/object K5GHS-1. If no packets are shown the sender has not sent any weather packets the latest 10 day(s).
| Time | Temp. | Humidity | Pressure | Rain* | Wind** | Luminosity | Snow |
|---|---|---|---|---|---|---|---|
| 1777469512 | 15° C | 82% | 1014 hPa | 0 mm | - | 13 W/m² | - |
| 1777469207 | 15° C | 82% | 1013.8 hPa | 0 mm | - | 13 W/m² | - |
| 1777468901 | 15° C | 82% | 1013.7 hPa | 0 mm | - | 15 W/m² | - |
| 1777468598 | 15° C | 82% | 1013.6 hPa | 0 mm | - | 19 W/m² | - |
| 1777468295 | 15° C | 81% | 1013.6 hPa | 0 mm | - | 15 W/m² | - |
| 1777467991 | 15° C | 81% | 1013.5 hPa | 0 mm | - | 17 W/m² | - |
| 1777467687 | 15° C | 81% | 1013.7 hPa | 0 mm | - | 12 W/m² | - |
| 1777467382 | 15° C | 81% | 1013.7 hPa | 0 mm | - | 8 W/m² | - |
| 1777467078 | 15.56° C | 81% | 1013.5 hPa | 0 mm | - | 10 W/m² | - |
| 1777466776 | 15.56° C | 81% | 1013.6 hPa | 0 mm | - | 6 W/m² | - |
| 1777466474 | 15.56° C | 81% | 1013.5 hPa | 0 mm | - | 6 W/m² | - |
| 1777466169 | 15° C | 81% | 1013.5 hPa | 0 mm | - | 5 W/m² | - |
| 1777465866 | 15° C | 81% | 1013.3 hPa | 0 mm | - | 3 W/m² | - |
| 1777465563 | 15.56° C | 81% | 1013.1 hPa | 0 mm | - | 5 W/m² | - |
| 1777465256 | 15.56° C | 81% | 1012.8 hPa | 0 mm | - | 5 W/m² | - |
| 1777464952 | 15.56° C | 81% | 1012.8 hPa | 0 mm | - | 4 W/m² | - |
| 1777464647 | 15.56° C | 80% | 1012.7 hPa | 0 mm | - | 3 W/m² | - |
| 1777464343 | 15.56° C | 80% | 1013 hPa | 0 mm | - | 6 W/m² | - |
| 1777464039 | 15.56° C | 80% | 1012.7 hPa | 0 mm | - | 2 W/m² | - |
| 1777463734 | 15.56° C | 80% | 1012.6 hPa | 0 mm | - | 0 W/m² | - |
| 1777463429 | 15.56° C | 79% | 1012.5 hPa | 0 mm | - | 0 W/m² | - |
| 1777463125 | 15.56° C | 79% | 1012.5 hPa | 0 mm | - | 0 W/m² | - |
| 1777462821 | 15.56° C | 78% | 1012.7 hPa | 0 mm | - | 0 W/m² | - |
| 1777462516 | 15.56° C | 78% | 1012.4 hPa | 0 mm | - | 0 W/m² | - |
| 1777462213 | 15.56° C | 78% | 1012.7 hPa | 0 mm | - | 0 W/m² | - |
* Rain latest hour (hover to see other rain measurements)
** Current wind speed in m/s (hover to see current wind gust speed)